Location: Newark
(48.4472°N, 1.4892°E)
Time: 13:15:59
(UTC+00:00)

A-11 Canister half - All Passes

Search period start: 18 November 2019 00:00
Search period end: 28 November 2019 00:00
Orbit: 1527 x 1682 km, 47.3° (Epoch: 17 November)

Date Brightness Start Highest point End Pass type
(mag) Time Alt. Az. Time Alt. Az. Time Alt. Az.
18 Nov - 10:54:49 10° SSW 11:03:30 35° SE 11:11:58 10° ENE daylight
18 Nov - 12:57:42 10° WSW 13:07:36 71° SSE 13:17:11 10° E daylight
18 Nov - 15:02:42 10° W 15:12:36 84° S 15:22:08 10° E daylight
18 Nov - 17:07:53 10° WNW 17:17:19 59° SSW 17:26:28 10° SE visible
18 Nov - 19:13:47 10° W 19:20:50 24° SW 19:27:47 10° S visible
19 Nov - 10:33:21 10° SSW 10:41:55 33° SE 10:50:18 10° ENE daylight
19 Nov - 12:36:05 10° WSW 12:45:58 69° SSE 12:55:34 10° ENE daylight
19 Nov - 14:41:02 10° W 14:50:57 85° S 15:00:31 10° E daylight
19 Nov - 16:46:14 10° WNW 16:55:44 61° SSW 17:04:55 10° SE visible
19 Nov - 18:52:01 10° W 18:59:18 25° SW 19:06:27 10° S visible
20 Nov - 10:11:52 10° SSW 10:20:20 32° SE 10:28:37 10° ENE daylight
20 Nov - 12:14:26 10° WSW 12:24:20 68° SSE 12:33:56 10° ENE daylight
20 Nov - 14:19:21 10° W 14:29:18 85° S 14:38:53 10° E daylight
20 Nov - 16:24:34 10° WNW 16:34:07 63° SSW 16:43:22 10° SE visible
20 Nov - 18:30:17 10° W 18:37:45 27° SW 18:45:06 10° S visible
21 Nov - 09:50:26 10° SSW 09:58:45 31° SE 10:06:56 10° E daylight
21 Nov - 11:52:48 10° SW 12:02:42 66° SSE 12:12:18 10° ENE daylight
21 Nov - 13:57:40 10° W 14:07:38 85° S 14:17:16 10° E daylight
21 Nov - 16:02:53 10° WNW 16:12:31 64° SSW 16:21:48 10° SE daylight
21 Nov - 18:08:32 10° W 18:16:13 28° SW 18:23:45 10° S visible
22 Nov - 09:28:59 10° S 09:37:11 29° SE 09:45:13 10° E daylight
22 Nov - 11:31:11 10° SW 11:41:04 65° SSE 11:50:41 10° ENE daylight
22 Nov - 13:36:00 10° W 13:46:00 85° S 13:55:39 10° E daylight
22 Nov - 15:41:14 10° WNW 15:50:54 66° SSW 16:00:13 10° SE daylight
22 Nov - 17:46:48 10° W 17:54:40 30° SW 18:02:22 10° S visible
23 Nov - 09:07:34 10° S 09:15:36 28° SE 09:23:31 10° E daylight
23 Nov - 11:09:33 10° SW 11:19:26 63° SSE 11:29:02 10° ENE daylight
23 Nov - 13:14:19 10° W 13:24:20 85° S 13:34:01 10° E daylight
23 Nov - 15:19:33 10° WNW 15:29:16 68° SSW 15:38:39 10° ESE daylight
23 Nov - 17:25:04 10° WNW 17:33:07 31° SW 17:40:58 10° SSE visible
24 Nov - 08:46:09 10° S 08:54:02 27° SE 09:01:47 10° E daylight
24 Nov - 10:47:56 10° SW 10:57:48 62° SSE 11:07:25 10° ENE daylight
24 Nov - 12:52:38 10° W 13:02:40 85° S 13:12:23 10° E daylight
24 Nov - 14:57:52 10° WNW 15:07:39 69° SSW 15:17:04 10° ESE daylight
24 Nov - 17:03:21 10° WNW 17:11:34 33° SW 17:19:33 10° SSE visible
25 Nov - 08:24:46 10° S 08:32:27 26° SE 08:40:03 10° E daylight
25 Nov - 10:26:20 10° SW 10:36:10 60° SSE 10:45:47 10° ENE daylight
25 Nov - 12:30:58 10° W 12:41:02 84° S 12:50:46 10° E daylight
25 Nov - 14:36:12 10° W 14:46:01 71° SSW 14:55:29 10° ESE daylight
25 Nov - 16:41:38 10° WNW 16:50:00 34° SW 16:58:09 10° SSE visible
26 Nov - 08:03:23 10° S 08:10:53 24° SE 08:18:18 10° E daylight
26 Nov - 10:04:43 10° SW 10:14:33 59° SSE 10:24:08 10° ENE daylight
26 Nov - 12:09:17 10° W 12:19:21 84° S 12:29:07 10° E daylight
26 Nov - 14:14:31 10° W 14:24:24 72° SSW 14:33:53 10° ESE daylight
26 Nov - 16:19:55 10° WNW 16:28:26 36° SW 16:36:43 10° SSE daylight
27 Nov - 07:42:02 10° S 07:49:20 23° SE 07:56:32 10° E daylight
27 Nov - 09:43:07 10° SW 09:52:55 57° SSE 10:02:30 10° ENE daylight
27 Nov - 11:47:36 10° W 11:57:42 84° S 12:07:29 10° E daylight
27 Nov - 13:52:51 10° W 14:02:46 73° SSW 14:12:18 10° ESE daylight
27 Nov - 15:58:13 10° WNW 16:06:52 37° SW 16:15:16 10° SSE daylight
